Regional Weather Roundup
Issued by NWS State College, PA

Home | Current Version | Previous Version | Text Only | Print | Product List | Glossary Off
Versions: 1 2 3 4 5 6 7 8 9 10 11 12 13 14 15 16 17 18 19 20 21 22 23 24 25 26 27 28 29 30 31 32 33 34 35 36 37 38 39 40 41 42 43 44 45 46 47 48 49 50

000
ASUS41 KCTP 280410
RWRCTP

REGIONAL WEATHER ROUNDUP
NATIONAL WEATHER SERVICE STATE COLLEGE PA
1100 PM EST TUE JAN 27 2015

Note: "fair" indicates few or no clouds below 12,000 feet with no
significant weather and/or obstructions to visibility.

* = STATION THAT DOES NOT REPORT PRECIPITATION /E.G. RAIN...SNOW...ETC/
    THUNDER OR FOG.

PAZ002>004-007>009-013>016-020>023-029>032-280500-
WESTERN PENNSYLVANIA

CITY           SKY/WX    TMP DP  RH WIND       PRES   REMARKS
ERIE           CLOUDY    19  11  70 N5        30.14R WCI  12
MEADVILLE      CLOUDY    15  11  83 NW5       30.08R WCI   8
FRANKLIN*      CLOUDY    12   7  79 NW3       30.08R
NEW CASTLE     FLURRIES  15  11  84 VRB7      30.14R WCI   5
BEAVER COUNTY  NOT AVBL
BUTLER*        CLOUDY    16   9  73 NW3       30.11R
PITTSBURGH INT FLURRIES  18  12  77 NW12      30.10R WCI   5
PITTSBURGH     CLOUDY    17   9  70 NW10      30.09R WCI   5
INDIANA*       CLOUDY    18  12  79 NW8G14    30.10R WCI   7
LATROBE        FLURRIES  18  14  86 W7        30.11R WCI   8
WASHINGTON CO* CLOUDY    18  10  73 MISG      30.13R
$$

PAZ004>006-010>012-017>019-024>028-033>037-041-042-045-046-049>053-280500-
CENTRAL PENNSYLVANIA

CITY           SKY/WX    TMP DP  RH WIND       PRES   REMARKS
BRADFORD       CLEAR      5   1  83 NW8       29.97R WCI  -8
DUBOIS         CLEAR     10   5  80 NW7       30.00R WCI  -1
CLEARFIELD     CLEAR     11   3  70 NW7       30.02R WCI   0
JOHNSTOWN      LGT SNOW  13   9  84 NW16      29.95R FOG     WCI  -3
ALTOONA        CLEAR     16   9  74 NW9       29.99R WCI   4
STATE COLLEGE  CLEAR     15   4  61 N8        30.01R WCI   4
WILLIAMSPORT   CLEAR     14   1  56 W10       30.03R WCI   1
SELINSGROVE    PTCLDY    16   2  54 NW10      30.03R WCI   4
FT INDIANTOWN  CLEAR     17   3  53 N21G38    29.94R WCI   0
CAPITAL CITY   CLEAR     21   5  50 NW10      29.99R WCI  10
HARRISBURG     PTCLDY    20   4  50 NW14      29.97R WCI   7
YORK           CLEAR     22   6  50 NE6       29.95R WCI  14
$$

PAZ038>040-043-044-047-048-054-055-060>062-067>071-280500-
EASTERN PENNSYLVANIA

CITY           SKY/WX    TMP DP  RH WIND       PRES   REMARKS
SCRANTON       MOCLDY    13   0  56 N13G24    29.92R WCI  -2
MOUNT POCONO   MOCLDY     8   0  69 NW21G36   29.75R WCI -12
ALLENTOWN      MOCLDY    18   5  57 N20G26    29.90R WCI   2
QUAKERTOWN*    NOT AVBL
READING        PTCLDY    18   5  57 NW15G23   29.93R WCI   4
LANCASTER      CLEAR     17   5  59 NW14G24   29.94R WCI   3
COATESVILLE    PTCLDY    19   9  63 N12G25    29.88R WCI   7
POTTSTOWN      PTCLDY    18   5  57 NW12      29.91R WCI   5
BLUE BELL      PTCLDY    21   9  58 NW8       29.88R WCI  12
DOYLESTOWN     PTCLDY    16   7  67 NW10G24   29.86R WCI   4
WILLOW GROVE   NOT AVBL
NORTH PHILA    PTCLDY    21   5  50 NW21G29   29.90R WCI   5
PHILADELPHIA   PTCLDY    23   6  48 NW20G28   29.90R WCI   8
$$



USA.gov is the U.S. government's official web portal to all federal, state and local government web resources and services.